Weather History for Dar Es Salaam, Tanzania

Change the Weather History Date:

Thursday, December 13, 2012

  Actual Average Record
Temperature  
Mean Temperature 83 °F -  
Max Temperature 91 °F 84 °F 91 °F (2005)
Min Temperature 75 °F 76 °F 73 °F (2006)
Cooling Degree Days 18    
Growing Degree Days 33 (Base 50)    
Moisture  
Dew Point 77 °F    
Average Humidity 77    
Maximum Humidity 94    
Minimum Humidity 53    
Precipitation  
Precipitation 0.00 in 0.13 in - ()
Sea Level Pressure  
Sea Level Pressure 29.81 in    
Wind  
Wind Speed 12 mph ()    
Max Wind Speed 26 mph    
Max Gust Speed -    
Visibility 10.1 miles    
Events Fog , Rain    
Averages and records for this station are not official NWS values.
T = Trace of Precipitation, MM = Missing Value Source: Averaged Metar Reports

Daily Weather History Graph

Daily Weather History Graph

Search for Another Location

Airport:

Trip Planner

Search our weather history database for the weather conditions in past years. The results will help you decide how hot, cold, wet, or windy it might be!

Date:

Astronomy

Dec. 13, 2012 Rise Set
Actual Time 6:01 AM EAT 6:33 PM EAT
Civil Twilight 5:39 AM EAT 6:55 PM EAT
Nautical Twilight 5:12 AM EAT 7:22 PM EAT
Astronomical Twilight 4:45 AM EAT 7:49 PM EAT
Moon 5:53 AM EAT (12/13) 6:45 PM EAT (12/13)
Length of Visible Light 13h 16m
Length of Day
12h 31m
New Moon, 0% of the Moon is Illuminated
Dec 13
New Moon
Dec 20
First Quarter
Dec 28
Full
Jan 5
Last Quarter
Jan 11
New

Hourly Weather History & Observations

Time (EAT) Temp. Heat Index Dew Point Humidity Pressure Visibility Wind Dir Wind Speed Gust Speed Precip Events Conditions
12:00 AM 82 °F - 77 °F 82% 29.85 in 19 mi NNE 11.5 mph - -   Partly Cloudy
1:00 AM 82.4 °F 90.9 °F 77.0 °F 84% 29.83 in 6.2 mi NNE 11.5 mph - N/A   Mostly Cloudy
2:00 AM 82.4 °F 90.9 °F 77.0 °F 84% 29.83 in 6.2 mi NNE 11.5 mph - N/A   Mostly Cloudy
3:00 AM 81 °F - 78 °F 86% 29.82 in 19 mi NNE 9.2 mph - -   Mostly Cloudy
3:00 AM 80.6 °F 87.1 °F 77.0 °F 89% 29.80 in 6.2 mi NNE 9.2 mph - N/A   Mostly Cloudy
6:00 AM 81 °F - 77 °F 84% 29.83 in 19 mi NNE 11.5 mph - -   Partly Cloudy
6:00 AM 80.6 °F 87.1 °F 77.0 °F 89% 29.83 in 6.2 mi NNE 11.5 mph - N/A   Scattered Clouds
8:00 AM 84.2 °F 94.1 °F 77.0 °F 79% 29.86 in 5.0 mi North 20.7 mph - N/A Rain Rain
9:00 AM 86 °F - 76 °F 66% 29.86 in 19 mi North 19.6 mph - -   Mostly Cloudy
9:00 AM 86.0 °F 96.9 °F 77.0 °F 74% 29.86 in 6.2 mi North 19.6 mph - N/A   Mostly Cloudy
11:00 AM 89.6 °F 99.8 °F 75.2 °F 62% 29.83 in 6.2 mi NE 18.4 mph - N/A   Partly Cloudy
12:00 PM 91 °F - 76 °F 53% 29.83 in 16 mi NNW 11.5 mph - - Fog Shallow Fog
12:00 PM 91.4 °F 105.1 °F 77.0 °F 63% 29.83 in 6.2 mi NNW 11.5 mph - N/A Rain Light Rain Showers
1:00 PM 89.6 °F 102.2 °F 77.0 °F 66% 29.80 in 6.2 mi North 15.0 mph - N/A   Partly Cloudy
2:00 PM 91.4 °F 105.1 °F 77.0 °F 63% 29.74 in 6.2 mi North 17.3 mph - N/A   Partly Cloudy
3:00 PM 89 °F - 78 °F 62% 29.76 in 19 mi NNE 18.4 mph - - Rain Heavy Rain Showers
3:00 PM 87.8 °F 99.7 °F 77.0 °F 70% 29.74 in 6.2 mi NNE 18.4 mph - N/A   Mostly Cloudy
4:00 PM 87.8 °F 99.7 °F 77.0 °F 70% 29.80 in 6.2 mi South 26.5 mph - N/A   Mostly Cloudy
5:00 PM 75.2 °F - 73.4 °F 94% 29.80 in 6.2 mi South 17.3 mph - N/A   Mostly Cloudy
6:00 PM 77 °F - 76 °F 94% 29.81 in 19 mi South 11.5 mph - -   Partly Cloudy
6:00 PM 77.0 °F - 75.2 °F 94% - 6.2 mi South 11.5 mph - N/A   Mostly Cloudy
7:00 PM 77.0 °F - 75.2 °F 94% 29.80 in 6.2 mi South 11.5 mph - N/A   Mostly Cloudy